Location: Unspecified
(42.3650°N, 71.1030°W)
Time: 22:38:51
(UTC+00:00)

Courier 1B Rocket - Pass Details

Date: 26 June 2024
Orbit: 920 x 1201 km, 28.2° (Epoch: 14 July)

Event Time Altitude Azimuth Distance (km) Brightness Sun altitude
Exits shadow 07:11:30 22° 192° (SSW) 1,994 6.1 -16.4°
Maximum altitude 07:12:45 23° 176° (S) 1,949 6.1 -16.2°
Drops below altitude 10° 07:17:57 10° 126° (SE) 2,822 7.4 -15.7°
Sets 07:21:18 0° 113° (ESE) 3,829 8.3 -15.3°
